Regional Weather Roundup
Issued by NWS

Home | Current Version | Previous Version | Graphics & Text | Print | Product List | Glossary On
Versions: 1 2 3 4 5 6 7 8 9 10 11 12 13 14 15 16 17 18 19 20 21 22 23 24 25 26 27 28 29 30 31 32 33 34 35 36 37 38 39 40 41 42 43 44 45 46 47 48 49 50
000
ASUS43 KDTX 060010
RWRMI
MICHIGAN HOURLY REGIONAL WEATHER ROUNDUP
NATIONAL WEATHER SERVICE DETROIT/PONTIAC MI
800 PM EDT THU MAY 05 2016

NOTE: "FAIR" INDICATES FEW OR NO CLOUDS BELOW 12,000 FEET WITH NO
SIGNIFICANT WEATHER AND/OR OBSTRUCTION TO VISIBILITY.

MIZ047>049-052>055-059>063-066>070-074>076-081>083-060100-
SOUTHEAST LOWER MICHIGAN

CITY           SKY/WX    TMP DP  RH WIND       PRES   REMARKS
ADRIAN         CLEAR     62  38  40 NE15      29.88R
6HR MIN TEMP:  62; 6HR MAX TEMP:  67;

ALMA           PTCLDY    62  44  50 NE6       29.89R
ANN ARBOR      CLEAR     62  36  37 NE15      29.87R
BAD AXE        CLEAR     55  37  51 NE8       29.90S
CARO           CLEAR     59  35  40 NE3       29.89R
DETROIT CITY   CLEAR     61  32  33 NE14      29.86R
6HR MIN TEMP:  60; 6HR MAX TEMP:  67;

DETROIT        PTCLDY    62  34  35 N16G22    29.86R
6HR MIN TEMP:  62; 6HR MAX TEMP:  67;

FLINT          CLEAR     63  37  38 NE12      29.88S
6HR MIN TEMP:  62; 6HR MAX TEMP:  67;

GROSSE ILE     CLEAR     63  32  31 N13G21    29.84S
HILLSDALE      CLEAR     61  35  37 N6        29.89R
6HR MIN TEMP:  61; 6HR MAX TEMP:  64;

HOWELL         CLEAR     61  38  41 N5        29.88S

CITY           SKY/WX    TMP DP  RH WIND       PRES   REMARKS
JACKSON        PTCLDY    62  39  42 N9        29.88S
6HR MIN TEMP:  61; 6HR MAX TEMP:  66;

LAMBERTVILLE   PTCLDY    64  37  36 N10G16    29.86S
6HR MIN TEMP:  64; 6HR MAX TEMP:  68;

LANSING        CLEAR     61  43  51 E5        29.89S
6HR MIN TEMP:  61; 6HR MAX TEMP:  67;

LAPEER         FAIR      60  32  34 NE8       29.88S
6HR MIN TEMP:  60; 6HR MAX TEMP:  64;

MASON          CLEAR     61  42  49 NE3       29.89S
6HR MIN TEMP:  60; 6HR MAX TEMP:  64;

MONROE         CLEAR     62  37  38 N7G20     29.85R
6HR MIN TEMP:  62; 6HR MAX TEMP:  67;

MT. CLEMENS    CLEAR     60  36  41 N12       29.86R
6HR MIN TEMP:  60; 6HR MAX TEMP:  65;

PONTIAC        PTCLDY    61  35  37 N10       29.87R
6HR MIN TEMP:  61; 6HR MAX TEMP:  64;

PORT HOPE        N/A     48  42  80 N6        29.88S
6HR MIN TEMP:  47; 6HR MAX TEMP:  50;

PORT HURON     CLEAR     57  36  44 N12       29.87S
TRI CITIES     CLEAR     59  42  53 NE10      29.91R
6HR MIN TEMP:  59; 6HR MAX TEMP:  66;

MIDLAND        FAIR      56  40  54 E7        29.90R
6HR MIN TEMP:  56; 6HR MAX TEMP:  66;

TROY           CLEAR     63  34  33 N9G18     29.88S
SAGINAW HB     CLEAR     59  43  55 N6        29.89S
$$
MIZ043>046-050>051-056>058-064>065-071>073-077>080-060100-
SOUTHWEST LOWER MICHIGAN

CITY           SKY/WX    TMP DP  RH WIND       PRES   REMARKS
BATTLE CREEK   PTCLDY    61  44  53 NW13G21   29.91R
6HR MIN TEMP:  61; 6HR MAX TEMP:  67;

BENTON HARBOR  CLEAR     48  38  68 VRB7      29.97S
6HR MIN TEMP:  46; 6HR MAX TEMP:  50;

BIG RAPIDS     CLEAR     61  35  36 NW9       29.91R
6HR MIN TEMP:  61; 6HR MAX TEMP:  67;

COLDWATER      MOCLDY    61  40  46 N7        29.89S
6HR MIN TEMP:  61; 6HR MAX TEMP:  66;

FREMONT        FAIR      58  36  43 NW12      29.93R
HOLLAND        CLEAR    N/A N/A N/A NW8       29.95S
GRAND RAPIDS   MOCLDY    64  41  42 NW16      29.90S
6HR MIN TEMP:  64; 6HR MAX TEMP:  69;

IONIA          FAIR      62  37  40 NW5       29.88S
6HR MIN TEMP:  62; 6HR MAX TEMP:  66;

KALAMAZOO      CLEAR     60  42  51 NW10      29.91S
6HR MIN TEMP:  60; 6HR MAX TEMP:  67;

LUDINGTON      CLEAR     52  35  52 N7        29.95F
6HR MIN TEMP:  52; 6HR MAX TEMP:  56;

MARSHALL       PTCLDY    62  42  46 CALM      29.89R
6HR MIN TEMP:  62; 6HR MAX TEMP:  67;

MOUNT PLEASANT MOCLDY    64  42  44 NE6       29.88S
6HR MIN TEMP:  62; 6HR MAX TEMP:  68;

MUSKEGON       PTCLDY    56  36  47 NW9       29.94S
6HR MIN TEMP:  56; 6HR MAX TEMP:  63;

SOUTH HAVEN    CLEAR     48  39  71 N8G16     29.96S
$$
MIZ016>042-060100-
NORTHERN LOWER MICHIGAN

CITY           SKY/WX    TMP DP  RH WIND       PRES   REMARKS
ALPENA         CLEAR     59  42  53 N12       29.90R
6HR MIN TEMP:  59; 6HR MAX TEMP:  66;

BEAVER ISLAND  CLOUDY    49  35  57 SW8       29.93S
6HR MIN TEMP:  49; 6HR MAX TEMP:  56;

BELLAIRE       CLEAR     54  35  49 CALM      29.94S
6HR MIN TEMP:  54; 6HR MAX TEMP:  60;

CADILLAC       CLEAR     58  41  52 NW7       29.92R
CHARLEVOIX     PTCLDY    48  35  60 SW5       29.97S
FRANKFORT      PTCLDY    53  38  56 CALM      29.94F
GAYLORD        CLEAR     57  40  52 NW6       29.92R
6HR MIN TEMP:  57; 6HR MAX TEMP:  63;

GRAYLING       CLEAR     59  40  49 W8        29.93R
6HR MIN TEMP:  59; 6HR MAX TEMP:  66;

HARBOR SPRINGS CLEAR     44  35  70 SW5       29.94S
HOUGHTON LAKE  CLEAR     60  38  43 NW10      29.91R
6HR MIN TEMP:  59; 6HR MAX TEMP:  66;

MANISTEE       CLEAR     50  34  53 NW5       29.96F
OSCODA         CLEAR     55  40  59 NE6       29.89S
6HR MIN TEMP:  55; 6HR MAX TEMP:  59;

PELLSTON       CLEAR     57  39  51 NW8       29.92S
6HR MIN TEMP:  57; 6HR MAX TEMP:  63;

ROGERS CITY    CLEAR     49  39  70 CALM      29.92S
TRAVERSE CITY  MOCLDY    50  38  63 N5        29.93S
6HR MIN TEMP:  50; 6HR MAX TEMP:  55;

$$
MIZ007>008-015-060100-
EASTERN UPPER MICHIGAN

CITY           SKY/WX    TMP DP  RH WIND       PRES   REMARKS
KINROSS          N/A     48  36  61 NW5       29.92S
6HR MIN TEMP:  48; 6HR MAX TEMP:  55;

MACKINAC ISLAN CLEAR     47  37  66 W9        29.92S
6HR MIN TEMP:  47; 6HR MAX TEMP:  54;

NEWBERRY       CLEAR     56  35  46 N6        29.92R
6HR MIN TEMP:  56; 6HR MAX TEMP:  62;

S. S. MARIE    CLEAR     51  34  52 NW7       29.91F
6HR MIN TEMP:  51; 6HR MAX TEMP:  56;

MUNISING         N/A     47  37  68 NE3       29.89S
6HR MIN TEMP:  44; 6HR MAX TEMP:  49;

$$
MIZ004>006-011>014-085-060100-
CENTRAL UPPER MICHIGAN

CITY           SKY/WX    TMP DP  RH WIND       PRES   REMARKS
MANISTIQUE     CLEAR     47  36  64 SW10      29.92S
6HR MIN TEMP:  47; 6HR MAX TEMP:  55;

ESCANABA       CLEAR     54  36  50 S8        29.92R
6HR MIN TEMP:  54; 6HR MAX TEMP:  55;

MENOMINEE      CLEAR     57  37  47 E9        29.92S
6HR MIN TEMP:  54; 6HR MAX TEMP:  61;

SAWYER-GWINN   CLEAR     63  32  31 E3        29.89S
$$
MIZ001>003-009>011-084-060100-
WESTERN UPPER MICHIGAN

CITY           SKY/WX    TMP DP  RH WIND       PRES   REMARKS
IRON MOUNTAIN  CLEAR     68  27  21 W6        29.87S
6HR MIN TEMP:  62; 6HR MAX TEMP:  71;

HOUGHTON       CLOUDY    54  32  43 E7        29.87R
6HR MIN TEMP:  54; 6HR MAX TEMP:  67;

COPPER HARBOR    N/A     49  35  58 SW8       29.88R
6HR MIN TEMP:  46; 6HR MAX TEMP:  58;

IRONWOOD         N/A     68  39  34 SW12G18   29.84R
6HR MIN TEMP:  64; 6HR MAX TEMP:  72;

$$

ABBREVIATIONS USED IN REMARKS
   TC - TEMPERATURE IN CELSIUS
  WCI - WIND CHILL INDEX
   HX - HEAT INDEX
  VSB - VISIBILITY




USA.gov is the U.S. government's official web portal to all federal, state and local government web resources and services.